Location: Recife
(8.0585°S, 34.8848°W)
Time: 12:12:53
(UTC-03:00)

Courier 1B - Pass Details

Date: 14 April 2026
Orbit: 962 x 1209 km, 28.3° (Epoch: 7 May)

Event Time Altitude Azimuth Distance (km) Brightness Sun altitude
Rises 04:19:03 0° 315° (NW) 3,939 - -16.2°
Exits shadow 04:19:29 - 316° (NW) 3,796 10.2 -16.1°
Reaches altitude 10° 04:21:56 10° 322° (NW) 3,017 9.8 -15.5°
Maximum altitude 04:28:58 43° 31° (NNE) 1,601 8.9 -13.8°
Drops below altitude 10° 04:36:16 10° 100° (E) 3,137 11.4 -12.0°
Sets 04:39:19 0° 107° (ESE) 4,110 12.1 -11.2°
